EW8528 Weather Reports


time (UTC)temp
F
wind
direction
speed
knots
gust
knots
rain 1hr
in
rain 24hr
in
rain mn
in
humidity
%
barometer
mb
20260505041547 56 71 0.0 5.2 0.00 0.00 0.00 65 1010.1
20260505040045 56 4 0.9 3.5 0.00 0.00 0.00 64 1010.2
20260505034551 57 350 0.0 5.2 0.00 0.00 0.00 63 1010.1
20260505033049 57 51 0.0 4.3 0.00 0.00 0.00 62 1010.1
20260505031557 57 0 0.9 4.3 0.00 0.00 0.00 60 1010.1
20260505030054 57 357 0.9 5.2 0.00 0.00 0.00 59 1010.1
20260505024550 58 83 0.0 5.2 0.00 0.00 0.00 57 1010.0
20260505023051 58 93 0.9 6.1 0.00 0.00 0.00 56 1010.2
20260505021543 59 8 0.9 7.8 0.00 0.00 0.00 54 1010.2
20260505020043 59 333 0.0 6.1 0.00 0.00 0.00 53 1010.1
20260505014601 60 63 0.9 7.0 0.00 0.00 0.00 52 1010.1
20260505013049 60 272 0.9 7.0 0.00 0.00 0.00 51 1009.8
20260505011552 61 79 2.6 8.7 0.00 0.00 0.00 50 1009.5
20260505010043 61 54 0.9 9.6 0.00 0.00 0.00 49 1009.5
20260505004551 62 10 1.7 8.7 0.00 0.00 0.00 47 1009.2
20260505003046 63 130 0.0 6.1 0.00 0.00 0.00 47 1008.9
20260505001547 63 243 2.6 8.7 0.00 0.00 0.00 46 1008.3
20260505000055 64 50 2.6 7.8 0.00 0.00 0.00 46 1008.0
20260504234547 64 86 0.9 6.1 0.00 0.00 0.00 45 1007.5
20260504233043 65 258 3.5 7.0 0.00 0.00 0.00 44 1007.6
20260504231542 66 296 2.6 8.7 0.00 0.00 0.00 43 1007.0
20260504230050 67 96 2.6 7.8 0.00 0.00 0.00 40 1006.7
20260504224550 69 136 2.6 8.7 0.00 0.00 0.00 38 1006.7
20260504223047 70 54 1.7 11.3 0.00 0.00 0.00 35 1006.4
20260504221544 71 101 0.9 4.3 0.00 0.00 0.00 32 1006.2
20260504220046 72 136 2.6 9.6 0.00 0.00 0.00 31 1006.1
20260504214552 72 309 0.9 9.6 0.00 0.00 0.00 31 1006.4
20260504213049 73 132 1.7 8.7 0.00 0.00 0.00 30 1006.2
20260504211554 73 0 1.7 9.6 0.00 0.00 0.00 30 1006.3
20260504210058 74 158 0.9 12.2 0.00 0.00 0.00 28 1006.2
20260504204606 73 215 2.6 9.6 0.00 0.00 0.00 29 1006.1
20260504203104 74 89 1.7 5.2 0.00 0.00 0.00 29 1006.1
20260504201551 73 82 3.5 8.7 0.00 0.00 0.00 28 1006.1
20260504200048 73 86 2.6 10.4 0.00 0.00 0.00 28 1006.2
20260504194552 73 101 2.6 8.7 0.00 0.00 0.00 28 1006.4
20260504193048 73 140 1.7 7.8 0.00 0.00 0.00 28 1006.3
20260504191550 72 328 1.7 9.6 0.00 0.00 0.00 28 1006.3
20260504190053 72 242 1.7 11.3 0.00 0.00 0.00 29 1006.4
20260504184547 72 5 3.5 13.0 0.00 0.00 0.00 28 1006.6
20260504183045 72 141 2.6 9.6 0.00 0.00 0.00 29 1006.8
20260504181551 71 135 2.6 10.4 0.00 0.00 0.00 30 1006.9
20260504180105 70 124 3.5 11.3 0.00 0.00 0.00 30 1007.2
20260504174551 70 330 3.5 14.8 0.00 0.00 0.00 32 1007.2
20260504173105 70 38 3.5 8.7 0.00 0.00 0.00 29 1007.2
20260504171556 69 106 2.6 13.0 0.00 0.00 0.00 33 1007.3
20260504081548 45 0 0.0 0.9 0.00 0.00 0.00 61 1010.1